Volver al catálogo

STARLINK-5050

ActivoComunicacionesVLEO
NORAD 53890·PAYLOAD·🇺🇸 United States

Lanzado Sep 24, 2022 desde Cape Canaveral Space Force Station

Loading…

Próximos Pases (próximas 24 horas)

TLE

ActualizadoSource: CelesTrak SupGP

Época: Sep 14, 2026, 14:04 UTC

1 53890C 22119E   26257.58659722  .00039739  00000+0  12789-2 0  2572
2 53890  53.1572 151.2935 0001284  95.2878 266.9477 15.31658097    17

Sigue STARLINK-5050 en tiempo real con AllMySat

Download on the App Store